Regional Weather Roundup
Issued by NWS

Home | Current Version | Previous Version | Graphics & Text | Print | Product List | Glossary On
Versions: 1 2 3 4 5 6 7 8 9 10 11 12 13 14 15 16 17 18 19 20 21 22 23 24 25 26 27 28 29 30 31 32 33 34 35 36 37 38 39 40 41 42 43 44 45 46 47 48 49 50
000
ASUS45 KBOU 171507
RWRCO

WEATHER ROUNDUP FOR COLORADO
NATIONAL WEATHER SERVICE DENVER/BOULDER CO
900 AM MDT FRI APR 17 2015

NOTE: "FAIR" INDICATES FEW OR NO CLOUDS BELOW 12000 FEET WITH NO
SIGNIFICANT WEATHER AND/OR OBSTRUCTIONS TO VISIBILITY.

COZ001>005-013-030-031-171600-
...NORTHWEST COLORADO...

CITY           SKY/WX    TMP DP  RH WIND       PRES   REMARKS
CRAIG          PTSUNNY   38  34  85 CALM      30.00F
HAYDEN         CLOUDY    34  30  86 NW5       30.00S WCI  30
MEEKER         PTSUNNY   34  31  88 MISG      29.98F
MOUNT WERNER   NOT AVBL
STEAMBOAT SPGS PTSUNNY   37  32  84 W3        29.97F
WALDEN         CLOUDY    32  28  86 N13       30.02F WCI  22
$$

COZ006>008-011-171600-
...WEST CENTRAL VALLEYS...

CITY           SKY/WX    TMP DP  RH WIND       PRES   REMARKS
GRAND JUNCTION LGT SNOW  33  33 100 N6        30.03R FOG     WCI  28
MONTROSE       CLOUDY    34  29  82 E7        30.04F WCI  28
EAGLE          CLOUDY    36  36 100 CALM      29.92F FOG
RIFLE          LGT RAIN  37  35  92 W8        29.98S
DELTA          LGT SNOW  34  34  98 N7        30.06S WCI  28
NUCLA          LGT SNOW  32  30  93 E5        30.10R WCI  27
$$

COZ017>023-064>068-171600-
...SOUTHWEST COLORADO...

CITY           SKY/WX    TMP DP  RH WIND       PRES   REMARKS
DURANGO        MOSUNNY   34  13  41 VRB3      30.04F
CORTEZ         CLOUDY    37  20  50 W7        30.07S
PAGOSA SPRINGS MOSUNNY   32  12  43 S6        30.04F WCI  26
TELLURIDE      CLOUDY    26  16  68 CALM      30.02F
WOLF CREEK PAS FLURRIES  12  10  92 SW7       30.01S WCI   2
$$

COZ009-010-012-014-032>034-037-058>063-171600-
...CENTRAL COLORADO...

CITY           SKY/WX    TMP DP  RH WIND       PRES   REMARKS
ASPEN          HVY SNOW  29  28  96 SE9       29.95R VSB 1/4 WCI  20
BUENA VISTA    SNOW      27  26  93 SE10      29.97F VSB 1/2 WCI  18
COPPER MTN     CLOUDY    27  21  80 E17G29    29.97F VSB 1/2 WCI  14
BERTHOUD PASS  CLOUDY    19  10  68 MISG      30.03F VSB<1/4
COTTONWOOD PAS SNOW      27  25  93 CALM      29.95F VSB 1/4
GUNNISON       CLOUDY    27  23  86 N7        30.03F WCI  19
KREMMLING      CLOUDY    34  30  86 NW9       29.97F WCI  26
LEADVILLE      SNOW      21  20  96 S13       29.94S VSB 1/4 WCI   9
MONARCH PASS   CLOUDY    14  10  85 MISG      30.05F
SALIDA         CLOUDY    29  27  92 S9        30.06F VSB 1/2 WCI  21
SUNLIGHT       SNOW     N/A N/A N/A NE3       30.01F VSB 1/2
WILKERSON PASS CLOUDY   N/A N/A N/A E15G28    29.97F THUNDER
$$

COZ069>075-171600-
...SAN LUIS VALLEY/SANGRE DE CRISTO MOUNTAINS...

CITY           SKY/WX    TMP DP  RH WIND       PRES   REMARKS
ALAMOSA        SUNNY     30  23  75 SW10      30.00F WCI  21
LA VETA PASS   SUNNY     21  14  73 MISG      29.96F
SAGUACHE       CLOUDY    28  27  93 CALM      30.01F
$$

COZ035-036-038>040-171600-
...NORTHERN COLORADO FRONT RANGE...

CITY           SKY/WX    TMP DP  RH WIND       PRES   REMARKS
DENVER INTL AP LGT RAIN  36  36 100 NE7       29.99F VSB 1/8
DMNS CITY PARK   N/A     39  38  97 N6        29.99S
AURORA         LGT RAIN  35  35 100 S5        30.00F VSB 1/4 WCI  31
FRONT RANGE AP NOT AVBL
ERIE MUNI ARPT CLOUDY    38  38 100 N16       30.01F
BOULDER MUN AP CLOUDY    37  37 100 N15       30.01F
CENTENNIAL     LGT RAIN  35  35 100 CALM      29.99F VSB 1/4
BROOMFIELD     NOT AVBL
FORT COLLINS   CLOUDY    39  37  93 NW16      30.05F
LONGMONT       MIX PCPN  41  38  90 N15G25    30.04F
$$

COZ041-046-047-076>085-087-088-171600-
...PIKES PEAK/PALMER DIVIDE AND SOUTHERN FOOTHILLS...

CITY           SKY/WX    TMP DP  RH WIND       PRES   REMARKS
COLO. SPRINGS  HAIL      37  36  96 E14G22    29.97R
A. F. ACADEMY  TSTM      34  32  93 NW8       29.95F FOG     WCI  27
ELLICOTT       LGT RAIN N/A N/A N/A S18G24    29.97R VSB 1/4
FALCON         TSTM      36  35  99 NE13G21   29.96F
FORT CARSON    LGT RAIN  38  37  99 NW12      29.94F
LIMON          CLOUDY    46  44  93 E14       29.97F
MONUMENT HILL  TSTM      32  32 100 NW6       29.97F VSB 3/4 WCI  26
TRINIDAD       SUNNY     41  36  82 S3        29.97F
$$

COZ042>045-048>051-090-091-171600-
...NORTHEAST COLORADO...

CITY           SKY/WX    TMP DP  RH WIND       PRES   REMARKS
GREELEY ARPT   CLOUDY    43  37  81 NE13      30.02F
AKRON          FOG       47  47 100 E14       30.00F VSB 1/4
BURLINGTON     CLOUDY    50  48  93 E12       29.99F
WRAY           CLOUDY   N/A N/A N/A E9        30.02F
STERLING       CLOUDY    50  50 100 E7        30.00S FOG
HOLYOKE        CLOUDY    54  52  94 E14G20    30.04S
FORT MORGAN    CLOUDY    47  46  95 NE12      30.01F
$$

COZ086-089-092>099-171600-
...SOUTHEAST COLORADO...

CITY           SKY/WX    TMP DP  RH WIND       PRES   REMARKS
PUEBLO         CLOUDY    40  37  89 W9        29.97S
LA JUNTA       CLOUDY    46  42  86 SW18      29.98R
LAMAR          LGT RAIN  52  49  89 S14       29.96R FOG
SPRINGFIELD      N/A     51  46  83 S15       29.98S
$$


USA.gov is the U.S. government's official web portal to all federal, state and local government web resources and services.